EW4931 Weather Reports


Display with metric or nautical units.
time (UTC)temp
F
wind
direction
speed
MPH
gust
MPH
rain 1hr
in
rain 24hr
in
rain mn
in
humidity
%
barometer
mb
20240304081441 0 0.0 0.0 0.00 0.00 0.00 1023.6
20240304080940 0 0.0 0.0 0.00 0.00 0.00 1023.6
20240304080438 0 0.0 0.0 0.00 0.00 0.00 1023.6
20240304075936 0 68 6.0 6.0 0.00 0.00 0.00 1023.6
20240304075434 0 68 6.0 6.0 0.00 0.00 0.00 1023.5
20240304074934 0 0.0 0.0 0.00 0.00 0.00 1023.4
20240304074431 33 62 4.0 4.0 0.00 0.00 0.00 97 1023.3
20240304073930 33 62 4.0 6.0 0.00 0.00 0.00 97 1023.3
20240304073430 33 34 6.0 7.0 0.00 0.00 0.00 97 1023.3
20240304072930 33 44 5.0 7.0 0.00 0.00 0.00 97 1023.3
20240304072430 33 30 4.0 7.0 0.00 0.00 0.00 97 1023.3
20240304071929 33 51 4.0 7.0 0.00 0.00 0.00 97 1023.3
20240304071430 33 34 4.0 7.0 0.00 0.00 0.00 97 1023.3
20240304070929 33 59 4.0 7.0 0.00 0.00 0.00 97 1023.3
20240304070429 33 51 4.0 5.0 0.00 0.00 0.00 97 1023.2
20240304070201 33 34 5.0 6.0 0.00 0.00 0.00 97 1023.1
20240304065429 33 69 4.0 6.0 0.00 0.00 0.00 97 1023.1
20240304064929 33 42 3.0 6.0 0.00 0.00 0.00 97 1023.0
20240304064429 33 42 3.0 7.0 0.00 0.00 0.00 97 1022.9
20240304064201 33 59 3.0 7.0 0.00 0.00 0.00 96 1022.9
20240304063428 32 37 4.0 6.0 0.00 0.00 0.00 96 1022.8
20240304063159 32 69 3.0 6.0 0.00 0.00 0.00 96 1022.8
20240304062429 32 41 3.0 6.0 0.00 0.00 0.00 96 1022.7
20240304061928 32 42 3.0 6.0 0.00 0.00 0.00 96 1022.7
20240304061429 32 38 4.0 6.0 0.00 0.00 0.00 96 1022.6
20240304060929 32 41 4.0 6.0 0.00 0.00 0.00 96 1022.4
20240304060428 32 38 4.0 6.0 0.00 0.00 0.00 96 1022.5
20240304055928 32 37 3.0 6.0 0.00 0.00 0.00 96 1022.4
20240304055427 32 63 4.0 6.0 0.00 0.00 0.00 96 1022.4
20240304054927 32 56 4.0 5.0 0.00 0.00 0.00 96 1022.2
20240304054429 32 47 3.0 4.0 0.00 0.00 0.00 96 1022.1
20240304053932 32 41 2.0 5.0 0.00 0.00 0.00 96 1022.0
20240304053928 32 52 3.0 5.0 0.00 0.00 0.00 96 1022.1
20240304053158 32 56 3.0 4.0 0.00 0.00 0.00 96 1022.0
20240304052427 32 38 2.0 4.0 0.00 0.00 0.00 96 1021.9
20240304051927 32 49 2.0 5.0 0.00 0.00 0.00 96 1021.9
20240304051427 32 45 2.0 5.0 0.00 0.00 0.00 96 1021.9
20240304050927 32 51 3.0 5.0 0.00 0.00 0.00 96 1021.8
20240304050427 32 45 4.0 5.0 0.00 0.00 0.00 96 1021.8
20240304045927 32 48 3.0 5.0 0.00 0.00 0.00 96 1021.7
20240304045427 32 38 3.0 5.0 0.00 0.00 0.00 96 1021.8
20240304044927 32 59 2.0 4.0 0.00 0.00 0.00 96 1021.7
20240304044426 32 54 3.0 3.0 0.00 0.00 0.00 96 1021.6
20240304043926 32 65 3.0 4.0 0.00 0.00 0.00 95 1021.5
20240304043426 32 52 2.0 5.0 0.00 0.00 0.00 96 1021.4
20240304042927 32 45 2.0 5.0 0.00 0.00 0.00 96 1021.4
20240304042430 32 59 4.0 6.0 0.00 0.00 0.00 95 1021.4
20240304042425 32 48 3.0 6.0 0.00 0.00 0.00 96 1021.5
20240304041426 32 63 3.0 5.0 0.00 0.00 0.00 96 1021.3
20240304040926 32 48 4.0 5.0 0.00 0.00 0.00 96 1021.3
20240304040425 32 73 3.0 4.0 0.00 0.00 0.00 96 1021.3
20240304035925 32 59 3.0 5.0 0.00 0.00 0.00 96 1021.2
20240304035425 32 65 4.0 5.0 0.00 0.00 0.00 96 1021.2
20240304034925 32 58 2.0 5.0 0.00 0.00 0.00 96 1021.2
20240304034425 32 51 3.0 6.0 0.00 0.00 0.00 96 1021.1
20240304033925 32 48 4.0 6.0 0.00 0.00 0.00 95 1021.1
20240304033656 32 58 3.0 6.0 0.00 0.00 0.00 95 1021.1
20240304032925 32 58 4.0 6.0 0.00 0.00 0.00 95 1021.1
20240304032425 32 79 4.0 7.0 0.00 0.00 0.00 95 1021.1
20240304031925 32 65 4.0 7.0 0.00 0.00 0.00 96 1021.1
20240304031424 32 54 4.0 6.0 0.00 0.00 0.00 95 1021.0
20240304030924 32 66 4.0 6.0 0.00 0.00 0.00 95 1021.0
20240304030424 32 59 4.0 7.0 0.00 0.00 0.00 95 1021.0
20240304025927 32 73 3.0 7.0 0.00 0.00 0.00 95 1020.9
20240304025424 32 56 4.0 7.0 0.00 0.00 0.00 95 1020.8
20240304024923 32 55 4.0 6.0 0.00 0.00 0.00 95 1020.8
20240304024656 32 62 4.0 6.0 0.00 0.00 0.00 95 1020.7
20240304023924 32 58 3.0 5.0 0.00 0.00 0.00 95 1020.6
20240304023424 32 75 4.0 5.0 0.00 0.00 0.00 95 1020.6
20240304022923 32 63 3.0 5.0 0.00 0.00 0.00 95 1020.6
20240304022423 32 58 4.0 5.0 0.00 0.00 0.00 95 1020.6
20240304022154 32 66 3.0 5.0 0.00 0.00 0.00 94 1020.6
20240304021423 33 69 4.0 5.0 0.00 0.00 0.00 95 1020.6
20240304020923 33 76 3.0 5.0 0.00 0.00 0.00 95 1020.7
20240304020423 33 68 3.0 5.0 0.00 0.00 0.00 94 1020.7
20240304015922 33 65 3.0 5.0 0.00 0.00 0.00 94 1020.7
20240304015422 33 92 4.0 6.0 0.00 0.00 0.00 94 1020.7
20240304014923 33 68 5.0 6.0 0.00 0.00 0.00 94 1020.7
20240304014423 33 79 4.0 5.0 0.00 0.00 0.00 95 1020.7
20240304013923 33 61 3.0 5.0 0.00 0.00 0.00 94 1020.6
20240304013422 33 62 3.0 6.0 0.00 0.00 0.00 95 1020.5
20240304013153 33 69 4.0 6.0 0.00 0.00 0.00 95 1020.6
20240304012422 33 62 4.0 6.0 0.00 0.00 0.00 95 1020.5
20240304011922 33 72 4.0 6.0 0.00 0.00 0.00 94 1020.5
20240304011422 33 58 4.0 6.0 0.00 0.00 0.00 95 1020.5
20240304010921 33 78 4.0 6.0 0.00 0.00 0.00 95 1020.6
20240304010422 33 75 4.0 6.0 0.00 0.00 0.00 95 1020.6
20240304005922 33 59 4.0 6.0 0.00 0.00 0.00 95 1020.5
20240304005421 33 66 4.0 6.0 0.00 0.00 0.00 95 1020.6
20240304004921 33 65 4.0 6.0 0.00 0.00 0.00 95 1020.5
20240304004653 33 75 4.0 6.0 0.00 0.00 0.00 95 1020.6
20240304003921 33 78 4.0 5.0 0.00 0.00 0.00 95 1020.5
20240304003422 33 66 3.0 5.0 0.00 0.00 0.00 95 1020.6
20240304002921 33 66 3.0 5.0 0.00 0.00 0.00 95 1020.6
20240304002421 33 75 4.0 5.0 0.00 0.00 0.00 95 1020.6
20240304001921 33 62 3.0 5.0 0.00 0.00 0.00 95 1020.6
20240304001651 33 75 3.0 6.0 0.00 0.00 0.00 95 1020.6
20240304000921 33 55 4.0 6.0 0.00 0.00 0.00 96 1020.6
20240304000420 33 89 4.0 5.0 0.00 0.00 0.00 95 1020.5
20240303235919 33 63 3.0 5.0 0.00 0.00 0.00 95 1020.5
20240303235420 33 79 4.0 5.0 0.00 0.00 0.00 95 1020.6
20240303234920 33 63 3.0 5.0 0.00 0.00 0.00 96 1020.6
20240303234420 33 56 2.0 5.0 0.00 0.00 0.00 95 1020.6
20240303233920 33 72 3.0 5.0 0.00 0.00 0.00 96 1020.6
20240303233420 33 52 4.0 5.0 0.00 0.00 0.00 95 1020.6
20240303232919 33 45 2.0 5.0 0.00 0.00 0.00 95 1020.6
20240303232419 33 63 3.0 5.0 0.00 0.00 0.00 95 1020.6
20240303231919 33 68 3.0 7.0 0.00 0.00 0.00 95 1020.7
20240303231419 33 52 4.0 7.0 0.00 0.00 0.00 95 1020.7
20240303231150 33 65 5.0 6.0 0.00 0.00 0.00 95 1020.6
20240303230419 33 66 3.0 7.0 0.00 0.00 0.00 95 1020.6
20240303230151 33 49 5.0 7.0 0.00 0.00 0.00 95 1020.6
20240303225419 33 63 4.0 6.0 0.00 0.00 0.00 95 1020.5
20240303224918 34 62 5.0 6.0 0.00 0.00 0.00 95 1020.5
20240303224417 34 65 4.0 6.0 0.00 0.00 0.00 95 1020.5
20240303223918 34 51 4.0 6.0 0.00 0.00 0.00 95 1020.4
20240303223417 34 82 4.0 6.0 0.00 0.00 0.00 95 1020.5
20240303222918 34 71 4.0 7.0 0.00 0.00 0.00 95 1020.4
20240303222418 34 61 4.0 7.0 0.00 0.00 0.00 95 1020.2
20240303221919 34 37 3.0 7.0 0.00 0.00 0.00 95 1020.2
20240303221650 34 83 5.0 7.0 0.00 0.00 0.00 95 1020.4
20240303220918 34 59 4.0 5.0 0.00 0.00 0.00 95 1020.2
20240303220650 34 48 3.0 4.0 0.00 0.00 0.00 95 1020.2
20240303215917 34 66 3.0 5.0 0.00 0.00 0.00 95 1020.2
20240303215417 34 69 3.0 6.0 0.00 0.00 0.00 95 1020.1
20240303214917 34 48 3.0 6.0 0.00 0.00 0.00 95 1020.1
20240303214418 34 72 3.0 6.0 0.00 0.00 0.00 95 1020.1
20240303213917 34 71 3.0 5.0 0.00 0.00 0.00 95 1020.1
20240303213416 34 66 3.0 5.0 0.00 0.00 0.00 95 1020.0
20240303212916 34 79 4.0 5.0 0.00 0.00 0.00 95 1020.1
20240303212422 34 65 3.0 6.0 0.00 0.00 0.00 95 1020.1
20240303212417 34 76 2.0 6.0 0.00 0.00 0.00 95 1020.1
20240303211416 34 66 4.0 6.0 0.00 0.00 0.00 95 1020.0
20240303210917 34 79 3.0 4.0 0.00 0.00 0.00 95 1020.0
20240303210416 34 61 2.0 6.0 0.00 0.00 0.00 95 1020.1
20240303205916 34 59 3.0 6.0 0.00 0.00 0.00 95 1020.1
20240303205647 34 73 1.0 5.0 0.00 0.00 0.00 95 1020.1
20240303204916 34 90 3.0 5.0 0.00 0.00 0.00 95 1020.1
20240303204416 34 79 3.0 5.0 0.00 0.00 0.00 95 1020.1
20240303203915 34 62 3.0 7.0 0.00 0.00 0.00 95 1020.2
20240303203415 34 79 4.0 7.0 0.00 0.00 0.00 95 1020.1
20240303202916 34 62 3.0 7.0 0.00 0.00 0.00 95 1020.1
20240303202415 34 62 2.0 7.0 0.00 0.00 0.00 95 1020.1
20240303202146 34 62 3.0 7.0 0.00 0.00 0.00 94 1020.1
20240303201415 34 94 3.0 6.0 0.00 0.00 0.00 94 1020.0
20240303200914 34 54 2.0 6.0 0.00 0.00 0.00 94 1020.0
20240303200415 34 65 4.0 6.0 0.00 0.00 0.00 94 1020.0
20240303195915 34 86 3.0 6.0 0.00 0.00 0.00 94 1020.0
20240303195415 34 56 4.0 6.0 0.00 0.00 0.00 94 1020.0
20240303194914 34 42 4.0 6.0 0.00 0.00 0.00 94 1020.0
20240303194414 34 85 3.0 6.0 0.00 0.00 0.00 94 1019.9
20240303193914 34 86 3.0 5.0 0.00 0.00 0.00 94 1019.9
20240303193415 34 92 4.0 9.0 0.00 0.00 0.00 94 1019.9
20240303192917 35 65 6.0 9.0 0.00 0.00 0.00 94 1019.8
20240303192414 35 89 4.0 6.0 0.00 0.00 0.00 94 1019.8
20240303191914 35 55 5.0 7.0 0.00 0.00 0.00 94 1019.8
20240303191414 35 61 5.0 7.0 0.00 0.00 0.00 94 1019.7
20240303190914 35 59 5.0 6.0 0.00 0.00 0.00 94 1019.7
20240303190413 35 72 4.0 9.0 0.00 0.00 0.00 94 1019.5
20240303185913 35 71 5.0 9.0 0.00 0.00 0.00 94 1019.5
20240303185413 35 59 4.0 9.0 0.00 0.00 0.00 94 1019.5
20240303184913 35 63 6.0 9.0 0.00 0.00 0.00 94 1019.5
20240303184644 35 94 5.0 7.0 0.00 0.00 0.00 94 1019.3
20240303183913 35 55 4.0 10.0 0.00 0.00 0.00 94 1019.3
20240303183412 35 72 5.0 10.0 0.00 0.00 0.00 93 1019.4
20240303182913 35 73 6.0 9.0 0.00 0.00 0.00 93 1019.3
20240303182411 35 73 6.0 7.0 0.00 0.00 0.00 93 1019.3
20240303181912 35 56 4.0 9.0 0.00 0.00 0.00 93 1019.2
20240303181412 35 80 4.0 9.0 0.00 0.00 0.00 93 1019.2
20240303180913 35 73 5.0 6.0 0.00 0.00 0.00 93 1019.2
20240303180412 35 118 4.0 7.0 0.00 0.00 0.00 93 1019.2
20240303175913 35 96 4.0 9.0 0.00 0.00 0.00 93 1019.2
20240303175646 35 89 6.0 9.0 0.00 0.00 0.00 93 1019.2
20240303174912 35 72 5.0 6.0 0.00 0.00 0.00 93 1019.1
20240303174411 35 85 5.0 7.0 0.00 0.00 0.00 93 1019.1
20240303173911 35 61 3.0 9.0 0.00 0.00 0.00 93 1019.1
20240303173642 36 63 7.0 9.0 0.00 0.00 0.00 93 1019.1
20240303172915 36 45 5.0 9.0 0.00 0.00 0.00 93 1019.1
20240303172911 36 56 4.0 9.0 0.00 0.00 0.00 93 1019.1
20240303171912 36 83 4.0 7.0 0.00 0.00 0.00 93 1019.0
20240303171413 36 86 5.0 6.0 0.00 0.00 0.00 92 1019.0
20240303170912 36 82 4.0 6.0 0.00 0.00 0.00 92 1019.0
20240303170412 36 80 6.0 7.0 0.00 0.00 0.00 92 1019.0
20240303170141 36 71 4.0 9.0 0.00 0.00 0.00 93 1019.0
20240303165410 36 109 4.0 9.0 0.00 0.00 0.00 92 1019.0
20240303164910 36 56 5.0 7.0 0.00 0.00 0.00 92 1019.0
20240303164641 36 83 5.0 9.0 0.00 0.00 0.00 92 1019.0
20240303163910 36 97 5.0 9.0 0.00 0.00 0.00 92 1018.9
20240303163411 37 48 3.0 7.0 0.00 0.00 0.00 91 1018.9
20240303162911 37 59 4.0 10.0 0.00 0.00 0.00 91 1018.9
20240303162409 37 63 5.0 10.0 0.00 0.00 0.00 91 1018.8
20240303161910 37 90 6.0 9.0 0.00 0.00 0.00 91 1018.8
20240303161410 37 69 6.0 9.0 0.00 0.00 0.00 91 1018.9
20240303160911 38 82 5.0 7.0 0.00 0.00 0.00 90 1018.8
20240303160641 38 99 5.0 7.0 0.00 0.00 0.00 90 1018.7
20240303155909 38 51 5.0 7.0 0.00 0.00 0.00 90 1018.8
20240303155409 38 94 3.0 6.0 0.00 0.00 0.00 90 1018.8
20240303154909 38 76 2.0 6.0 0.00 0.00 0.00 90 1018.8
20240303154409 38 86 5.0 9.0 0.00 0.00 0.00 90 1018.7
20240303153911 38 94 6.0 9.0 0.00 0.00 0.00 90 1018.7
20240303153409 38 85 3.0 6.0 0.00 0.00 0.00 90 1018.8
20240303152910 38 62 4.0 6.0 0.00 0.00 0.00 90 1018.7
20240303152409 38 71 4.0 6.0 0.00 0.00 0.00 90 1018.7
20240303151909 38 66 4.0 9.0 0.00 0.00 0.00 90 1018.6
20240303151409 38 92 6.0 7.0 0.00 0.00 0.00 89 1018.7
20240303150908 39 51 3.0 7.0 0.00 0.00 0.00 89 1018.6
20240303150640 39 72 5.0 6.0 0.00 0.00 0.00 89 1018.6
20240303145908 39 68 2.0 10.0 0.00 0.00 0.00 89 1018.6
20240303145409 39 72 5.0 10.0 0.00 0.00 0.00 89 1018.5
20240303144908 39 103 3.0 12.0 0.00 0.00 0.00 89 1018.6
20240303144407 39 103 6.0 12.0 0.00 0.00 0.00 89 1018.6
20240303143908 39 145 6.0 11.0 0.00 0.00 0.00 89 1018.5
20240303143407 39 107 6.0 10.0 0.00 0.00 0.00 88 1018.5
20240303142907 39 102 6.0 11.0 0.00 0.00 0.00 88 1018.5
20240303142407 40 121 7.0 11.0 0.00 0.00 0.00 88 1018.5
20240303141909 40 78 5.0 11.0 0.00 0.00 0.00 88 1018.5
20240303141407 40 121 8.0 11.0 0.00 0.00 0.00 88 1018.5
20240303140907 40 113 5.0 11.0 0.00 0.00 0.00 88 1018.5
20240303140407 40 120 6.0 11.0 0.00 0.00 0.00 87 1018.6
20240303135907 40 97 7.0 11.0 0.00 0.00 0.00 87 1018.5
20240303135406 40 93 5.0 11.0 0.00 0.00 0.00 87 1018.6
20240303134906 41 110 6.0 13.0 0.00 0.00 0.00 87 1018.6
20240303134406 41 82 6.0 13.0 0.00 0.00 0.00 86 1018.6
20240303133906 41 109 8.0 11.0 0.00 0.00 0.00 86 1018.6
20240303133406 41 102 9.0 12.0 0.00 0.00 0.00 85 1018.5
20240303132906 42 106 8.0 12.0 0.00 0.00 0.00 85 1018.4
20240303132405 42 147 7.0 10.0 0.00 0.00 0.00 85 1018.5
20240303131911 42 137 9.0 14.0 0.00 0.00 0.00 84 1018.4
20240303131906 42 113 6.0 11.0 0.00 0.00 0.00 84 1018.5
20240303130905 42 106 5.0 14.0 0.00 0.00 0.00 83 1018.5
20240303130406 43 69 5.0 13.0 0.00 0.00 0.00 82 1018.6
20240303130137 43 137 10.0 13.0 0.00 0.00 0.00 82 1018.5
20240303125407 44 97 6.0 10.0 0.00 0.00 0.00 83 1018.5
20240303124906 44 89 7.0 10.0 0.00 0.00 0.00 84 1018.4
20240303124138 43 96 8.0 12.0 0.00 0.00 0.00 84 1018.5
20240303123407 43 65 7.0 12.0 0.00 0.00 0.00 84 1018.6
20240303122907 43 78 5.0 10.0 0.00 0.00 0.00 85 1018.6
20240303122407 43 69 6.0 10.0 0.00 0.00 0.00 85 1018.6
20240303121906 42 73 6.0 10.0 0.00 0.00 0.00 85 1018.6
20240303121405 42 93 6.0 9.0 0.00 0.00 0.00 85 1018.6
20240303120905 43 114 4.0 11.0 0.00 0.00 0.00 85 1018.7
20240303120408 42 100 6.0 11.0 0.00 0.00 0.00 84 1018.6
20240303115905 43 61 5.0 10.0 0.00 0.00 0.00 85 1018.6
20240303115405 43 83 5.0 12.0 0.00 0.00 0.00 85 1018.6
20240303114905 43 75 9.0 12.0 0.00 0.00 0.00 84 1018.6
20240303114405 43 159 7.0 11.0 0.00 0.00 0.00 84 1018.6
20240303113905 43 86 6.0 11.0 0.00 0.00 0.00 86 1018.7
20240303113406 43 118 7.0 13.0 0.00 0.00 0.00 85 1018.6
20240303112904 42 113 6.0 13.0 0.00 0.00 0.00 85 1018.7
20240303112404 43 114 7.0 9.0 0.00 0.00 0.00 86 1018.6
20240303111904 42 151 7.0 11.0 0.00 0.00 0.00 86 1018.6
20240303111407 42 72 4.0 11.0 0.00 0.00 0.00 85 1018.6
20240303110906 42 104 5.0 9.0 0.00 0.00 0.00 86 1018.7
20240303110637 42 111 4.0 9.0 0.00 0.00 0.00 88 1018.6
20240303105906 41 63 5.0 10.0 0.00 0.00 0.00 88 1018.7
20240303105401 41 34 5.0 10.0 0.00 0.00 0.00 88 1018.7
20240303104904 41 65 8.0 10.0 0.00 0.00 0.00 88 1018.7
20240303104403 41 94 6.0 9.0 0.00 0.00 0.00 89 1018.7
20240303103903 40 94 5.0 7.0 0.00 0.00 0.00 90 1018.7
20240303103404 40 100 4.0 10.0 0.00 0.00 0.00 90 1018.6
20240303102905 40 93 8.0 10.0 0.00 0.00 0.00 90 1018.6
20240303102634 40 106 6.0 10.0 0.00 0.00 0.00 90 1018.7
20240303101905 40 128 4.0 10.0 0.00 0.00 0.00 90 1018.7
20240303101635 40 145 5.0 11.0 0.00 0.00 0.00 90 1018.8
20240303100904 40 147 5.0 11.0 0.00 0.00 0.00 90 1018.9
20240303100404 40 127 4.0 10.0 0.00 0.00 0.00 90 1018.7
20240303095902 40 76 4.0 9.0 0.00 0.00 0.00 90 1018.8
20240303095635 40 85 2.0 10.0 0.00 0.00 0.00 91 1018.7
20240303094902 40 86 6.0 11.0 0.00 0.00 0.00 91 1018.7
20240303094402 40 140 5.0 12.0 0.00 0.00 0.00 91 1018.7
20240303093904 40 87 6.0 12.0 0.00 0.00 0.00 91 1018.6
20240303093404 40 114 7.0 10.0 0.00 0.00 0.00 91 1018.6
20240303092903 40 137 6.0 10.0 0.00 0.00 0.00 90 1018.6
20240303092403 40 165 5.0 9.0 0.00 0.00 0.00 90 1018.6
20240303091903 40 86 4.0 11.0 0.00 0.00 0.00 91 1018.6
20240303091636 40 111 3.0 11.0 0.00 0.00 0.00 90 1018.6
20240303090901 40 76 4.0 5.0 0.00 0.00 0.00 91 1018.6
20240303090402 40 62 3.0 11.0 0.00 0.00 0.00 91 1018.6
20240303085900 40 87 4.0 11.0 0.00 0.00 0.00 91 1018.6
20240303085400 40 104 8.0 10.0 0.00 0.00 0.00 91 1018.6
20240303084900 40 131 5.0 7.0 0.00 0.00 0.00 92 1018.6
20240303084359 40 96 3.0 7.0 0.00 0.00 0.00 92 1018.4
20240303083900 39 93 4.0 6.0 0.00 0.00 0.00 92 1018.4
20240303083359 39 92 4.0 7.0 0.00 0.00 0.00 92 1018.5
20240303082900 39 79 4.0 7.0 0.00 0.00 0.00 93 1018.4
20240303082630 39 89 3.0 6.0 0.00 0.00 0.00 92 1018.5
20240303081859 39 66 4.0 5.0 0.00 0.00 0.00 93 1018.5
20240303081631 39 137 4.0 5.0 0.00 0.00 0.00 93 1018.5